Time,TemperatureF,DewpointF,PressureIn,WindDirection,WindDirectionDegrees,WindSpeedMPH,WindSpeedGustMPH,Humidity,HourlyPrecipIn,Conditions,Clouds,dailyrainin,SoftwareType,DateUTC
2013-11-04 00:00:00,53.8,39.8,29.92,West,270,6.0,16.0,59,0.00,,---,0.00,VWS V14.01,2013-11-04 06:00:00,
2013-11-04 00:30:00,53.3,39.3,29.91,West,270,5.0,13.0,59,0.00,,---,0.00,VWS V14.01,2013-11-04 06:30:00,
2013-11-04 01:00:00,53.1,40.0,29.92,West,270,5.0,15.0,61,0.00,,---,0.00,VWS V14.01,2013-11-04 07:00:00,
2013-11-04 01:30:00,51.9,40.1,29.91,West,270,4.0,12.0,64,0.00,,---,0.02,VWS V14.01,2013-11-04 07:30:00,
2013-11-04 02:00:00,51.0,40.4,29.91,West,270,4.0,11.0,67,0.00,,---,0.06,VWS V14.01,2013-11-04 08:00:00,
2013-11-04 02:30:00,50.5,40.7,29.91,West,270,4.0,12.0,69,0.00,,---,0.11,VWS V14.01,2013-11-04 08:30:00,
2013-11-04 03:00:00,50.8,41.4,29.90,West,270,4.0,10.0,70,0.00,,---,0.11,VWS V14.01,2013-11-04 09:00:00,
2013-11-04 03:30:00,50.1,41.4,29.90,West,270,4.0,10.0,72,0.00,,---,0.12,VWS V14.01,2013-11-04 09:30:00,
2013-11-04 04:00:00,50.1,41.8,29.89,West,270,3.0,9.0,73,0.00,,---,0.13,VWS V14.01,2013-11-04 10:00:00,
2013-11-04 04:30:00,50.7,42.7,29.88,West,270,3.0,9.0,74,0.00,,---,0.13,VWS V14.01,2013-11-04 10:30:00,
2013-11-04 05:00:00,50.7,42.7,29.88,West,270,4.0,10.0,74,0.00,,---,0.14,VWS V14.01,2013-11-04 11:00:00,
2013-11-04 05:30:00,50.8,42.8,29.88,West,270,4.0,10.0,74,0.00,,---,0.14,VWS V14.01,2013-11-04 11:30:00,
2013-11-04 06:00:00,50.8,42.5,29.87,West,270,4.0,11.0,73,0.00,,---,0.14,VWS V14.01,2013-11-04 12:00:00,
2013-11-04 06:30:00,50.8,42.5,29.87,West,270,4.0,12.0,73,0.00,,---,0.14,VWS V14.01,2013-11-04 12:30:00,
2013-11-04 07:00:00,51.0,42.7,29.87,West,270,4.0,14.0,73,0.00,,---,0.14,VWS V14.01,2013-11-04 13:00:00,
2013-11-04 07:30:00,51.3,43.0,29.88,West,270,4.0,14.0,73,0.00,,---,0.14,VWS V14.01,2013-11-04 13:30:00,
2013-11-04 08:00:00,52.6,43.8,29.91,West,270,3.0,11.0,72,0.00,,---,0.14,VWS V14.01,2013-11-04 14:00:00,
2013-11-04 08:30:00,53.9,44.7,29.92,West,270,4.0,11.0,71,0.00,,---,0.14,VWS V14.01,2013-11-04 14:30:00,
2013-11-04 09:00:00,55.0,45.8,29.93,West,270,5.0,13.0,71,0.00,,---,0.14,VWS V14.01,2013-11-04 15:00:00,
2013-11-04 09:30:00,56.2,46.6,29.93,West,270,6.0,16.0,70,0.00,,---,0.14,VWS V14.01,2013-11-04 15:30:00,
2013-11-04 10:00:00,57.2,47.1,29.94,West,270,6.0,15.0,69,0.00,,---,0.14,VWS V14.01,2013-11-04 16:00:00,
2013-11-04 10:30:00,56.9,46.5,29.94,West,270,7.0,16.0,68,0.00,,---,0.14,VWS V14.01,2013-11-04 16:30:00,
2013-11-04 11:00:00,57.3,46.8,29.95,West,270,6.0,13.0,68,0.00,,---,0.14,VWS V14.01,2013-11-04 17:00:00,
2013-11-04 11:30:00,57.6,47.1,29.95,West,270,6.0,15.0,68,0.00,,---,0.14,VWS V14.01,2013-11-04 17:30:00,
2013-11-04 12:00:00,57.6,47.1,29.96,West,270,5.0,12.0,68,0.00,,---,0.14,VWS V14.01,2013-11-04 18:00:00,
2013-11-04 12:30:00,57.6,47.1,29.96,WSW,248,5.0,13.0,68,0.00,,---,0.14,VWS V14.01,2013-11-04 18:30:00,
2013-11-04 13:00:00,57.5,47.0,29.96,WSW,248,4.0,11.0,68,0.00,,---,0.14,VWS V14.01,2013-11-04 19:00:00,
2013-11-04 13:30:00,57.6,47.5,29.97,WSW,248,3.0,10.0,69,0.00,,---,0.14,VWS V14.01,2013-11-04 19:30:00,
2013-11-04 14:00:00,58.0,47.5,29.96,West,270,3.0,10.0,68,0.00,,---,0.14,VWS V14.01,2013-11-04 20:00:00,
2013-11-04 14:30:00,58.6,48.5,29.96,West,270,3.0,7.0,69,0.00,,---,0.14,VWS V14.01,2013-11-04 20:30:00,
2013-11-04 15:00:00,58.9,48.4,29.97,West,270,3.0,8.0,68,0.00,,---,0.14,VWS V14.01,2013-11-04 21:00:00,
2013-11-04 15:30:00,58.9,48.8,29.97,West,270,3.0,8.0,69,0.00,,---,0.14,VWS V14.01,2013-11-04 21:30:00,
2013-11-04 16:00:00,58.7,48.6,29.98,West,270,3.0,7.0,69,0.00,,---,0.14,VWS V14.01,2013-11-04 22:00:00,
2013-11-04 16:30:00,58.6,48.9,29.99,West,270,2.0,6.0,70,0.00,,---,0.14,VWS V14.01,2013-11-04 22:30:00,
2013-11-04 17:00:00,58.3,48.6,29.99,West,270,2.0,6.0,70,0.00,,---,0.14,VWS V14.01,2013-11-04 23:00:00,
2013-11-04 17:30:00,58.0,48.7,30.00,WSW,248,1.0,6.0,71,0.00,,---,0.14,VWS V14.01,2013-11-04 23:30:00,
2013-11-04 18:00:00,57.6,48.7,30.02,West,270,2.0,6.0,72,0.00,,---,0.14,VWS V14.01,2013-11-05 00:00:00,
2013-11-04 18:30:00,57.2,48.6,30.03,South,180,1.0,4.0,73,0.00,,---,0.14,VWS V14.01,2013-11-05 00:30:00,
2013-11-04 19:00:00,56.9,48.7,30.04,SSE,158,1.0,4.0,74,0.00,,---,0.14,VWS V14.01,2013-11-05 01:00:00,
2013-11-04 19:30:00,56.5,48.7,30.05,SSE,158,1.0,3.0,75,0.00,,---,0.14,VWS V14.01,2013-11-05 01:30:00,
2013-11-04 20:00:00,56.2,48.8,30.05,SSE,158,0.0,3.0,76,0.00,,---,0.14,VWS V14.01,2013-11-05 02:00:00,
2013-11-04 20:30:00,56.2,49.1,30.05,SSE,158,0.0,3.0,77,0.00,,---,0.14,VWS V14.01,2013-11-05 02:30:00,
2013-11-04 21:00:00,56.2,49.4,30.06,SSE,158,0.0,2.0,78,0.00,,---,0.14,VWS V14.01,2013-11-05 03:00:00,
2013-11-04 21:30:00,56.3,49.5,30.07,SSW,202,1.0,5.0,78,0.00,,---,0.14,VWS V14.01,2013-11-05 03:30:00,
2013-11-04 22:00:00,56.6,49.8,30.07,WSW,248,1.0,5.0,78,0.00,,---,0.14,VWS V14.01,2013-11-05 04:00:00,
2013-11-04 22:30:00,56.5,50.1,30.07,WSW,248,1.0,4.0,79,0.00,,---,0.14,VWS V14.01,2013-11-05 04:30:00,
2013-11-04 23:00:00,56.2,50.1,30.07,West,270,1.0,4.0,80,0.00,,---,0.14,VWS V14.01,2013-11-05 05:00:00,
2013-11-04 23:30:00,56.3,50.9,30.08,West,270,2.0,5.0,82,0.00,,---,0.14,VWS V14.01,2013-11-05 05:30:00,